Home   Weather   Carson   Past weeks
Flag for USA

Past Weather in Carson, California, USA — July 2015

Now
68 °F

Clear.


Feels Like: 68 °F
Forecast: 77 / 62 °F
Wind: 5 mph from West

Location: Los Angeles / USC Campus Downtown

Current Time: Aug 17, 2019 at 8:39:56 pm

Latest Report: Aug 17, 2019 at 7:52 pm


Visibility: 9 mi

Pressure: 29.84 "Hg

Humidity: 76%

Dew Point: 60 °F

Location of CarsonLocation

July 2015 Weather in Carson — Graph

°F

High & Low Weather Summary for July 2015

 TemperatureHumidityPressure
High90 °F (Jul 19, 10:47 am)91% (Jul 29, 3:47 am)30.07 "Hg (Jul 29, 3:47 am)
Low62 °F (Jul 10, 5:47 am)31% (Jul 18, 12:47 pm)29.78 "Hg (Jul 17, 4:47 pm)
Average72 °F71%29.92 "Hg
* Reported Jul 1 12:47 am — Jul 31 11:47 pm, Carson. Weather by CustomWeather, © 2019

Note: Actual official high and low records may vary slightly from our data, if they occured in-between our weather recording intervals... More about our weather records

Advertising

Carson Weather History for July 1, 2015

Scroll right to see more
 ConditionsComfort  
Time TempWeatherWind HumidityBarometerVisibility
12:47 am
Wed, Jul 1
68 °FClear.No wind82%29.84 "Hg10 mi
1:47 am68 °FClear.No wind82%29.84 "Hg10 mi
2:47 am67 °FClear.No wind87%29.84 "Hg8 mi
3:47 am70 °FClear.5 mph79%29.88 "Hg10 mi
4:47 am69 °FClear.No wind81%29.88 "Hg10 mi
5:47 am70 °FClear.No wind79%29.88 "Hg10 mi
6:47 am72 °FSunny.No wind73%29.88 "Hg10 mi
7:47 am75 °FSunny.No wind69%29.87 "Hg10 mi
8:47 am74 °FSunny.No wind69%29.90 "Hg10 mi
9:47 am74 °FSunny.No wind69%29.92 "Hg10 mi
10:47 am77 °FPassing clouds.No wind64%29.92 "Hg10 mi
11:47 am82 °FSunny.No wind53%29.90 "Hg10 mi
12:47 pm84 °FSunny.3 mph46%29.87 "Hg10 mi
1:47 pm81 °FSunny.3 mph51%29.86 "Hg10 mi
2:47 pm80 °FSunny.5 mph52%29.89 "Hg10 mi
3:47 pm78 °FSunny.6 mph56%29.88 "Hg10 mi
4:47 pm77 °FSunny.No wind54%29.87 "Hg10 mi
5:47 pm77 °FSunny.6 mph54%29.86 "Hg10 mi
6:47 pm74 °FSunny.No wind62%29.88 "Hg10 mi
7:47 pm72 °FSunny.3 mph66%29.91 "Hg10 mi
8:47 pm69 °FSunny.5 mph79%29.92 "Hg10 mi
9:47 pm69 °FClear.No wind81%29.93 "Hg10 mi
10:47 pm69 °FClear.No wind79%29.94 "Hg10 mi
11:47 pm69 °FClear.No wind79%29.93 "Hg10 mi
Weather by CustomWeather, © 2019

See weather overview